User: anonymous   Login
Location: DARK SKY Beskydy - Park tmavé oblohy, www.darkskybeskydy.cz
(49.4926°N, 18.5016°E)
Time: 15:30:30
(UTC+02:00)
Language:

A-11 Canister half - Orbit

View from above orbital plane
View from above orbital plane
View from above satellite
View from above satellite

Ground track
Ground track

The orbit data is extracted from the following two-line orbital elements,

1 00053U 60009E   24205.67168782 -.00000074  00000-0  10571-3 0  9990
2 00053  47.2789 321.5341 0100766 185.6066 174.3600 12.17341363850946
Epoch (UTC): 23 July 2024 16:07:13
Eccentricity: 0.0100766
inclination: 47.2789°
perigee height: 1524 km
apogee height: 1684 km
right ascension of ascending node: 321.5341°
argument of perigee: 185.6066°
revolutions per day: 12.17341363
mean anomaly at epoch: 174.3600°
orbit number at epoch: 85094

The dashed part of the orbit path shows where the satellite is in the earth's shadow,  

DLR